Terminal Aerodrome Forecast
Issued by NWS Amarillo, TX

Home | Current Version | Previous Version | Text Only | Print | Product List | Glossary On
Versions: 1 2 3 4 5 6 7 8 9 10 11 12 13 14 15 16 17
000
FTUS44 KAMA 212320
TAFDHT
TAF
KDHT 212320Z 2200/2224 33017G27KT 6SM BR VCSH SCT020 BKN040
     FM220300 33026G36KT P6SM BKN070
     FM221300 33013G23KT P6SM FEW250=

USA.gov is the U.S. government's official web portal to all federal, state and local government web resources and services.